| time (UTC) | temp C | wind direction | speed KPH | gust KPH | rain 1hr cm | rain 24hr cm | rain mn cm | humidity % | barometer mb |
| 20260503190431 | 13 | 311 | 6.4 | 6.4 | 0.00 | 0.00 | 0.00 | 36 | 1016.5 |
| 20260503185927 | 13 | 294 | 9.7 | 17.7 | 0.00 | 0.00 | 0.00 | 34 | 1016.9 |
| 20260503185424 | 13 | 339 | 14.5 | 16.1 | 0.00 | 0.00 | 0.00 | 35 | 1016.9 |
| 20260503184923 | 12 | 358 | 4.8 | 9.7 | 0.00 | 0.00 | 0.00 | 41 | 1017.1 |
| 20260503184420 | 13 | 316 | 14.5 | 16.1 | 0.00 | 0.00 | 0.00 | 36 | 1017.1 |
| 20260503183916 | 13 | 233 | 3.2 | 4.8 | 0.00 | 0.00 | 0.00 | 33 | 1017.0 |
| 20260503183413 | 12 | 301 | 9.7 | 16.1 | 0.00 | 0.00 | 0.00 | 36 | 1016.9 |
| 20260503182910 | 13 | 210 | 8.0 | 9.7 | 0.00 | 0.00 | 0.00 | 33 | 1017.0 |
| 20260503182409 | 12 | 307 | 4.8 | 11.3 | 0.00 | 0.00 | 0.00 | 36 | 1016.9 |
| 20260503181906 | 12 | 317 | 12.9 | 14.5 | 0.00 | 0.00 | 0.00 | 35 | 1017.0 |
| 20260503181403 | -17 | 0.0 | 0.0 | 0.00 | 0.00 | 0.00 | 1017.0 | ||
| 20260503180859 | -17 | 0.0 | 0.0 | 0.00 | 0.00 | 0.00 | 1017.1 | ||
| 20260503180357 | 11 | 288 | 19.3 | 24.1 | 0.00 | 0.00 | 0.00 | 36 | 1017.2 |
| 20260503175853 | 11 | 288 | 19.3 | 24.1 | 0.00 | 0.00 | 0.00 | 36 | 1017.2 |
| 20260503175352 | 11 | 18 | 1.6 | 3.2 | 0.00 | 0.00 | 0.00 | 35 | 1017.1 |
| 20260503174847 | 11 | 18 | 1.6 | 3.2 | 0.00 | 0.00 | 0.00 | 35 | 1017.1 |
| 20260503174345 | 12 | 143 | 11.3 | 12.9 | 0.00 | 0.00 | 0.00 | 37 | 1017.1 |
| 20260503173845 | 11 | 163 | 3.2 | 9.7 | 0.00 | 0.00 | 0.00 | 37 | 1017.2 |
| 20260503173342 | 11 | 296 | 6.4 | 6.4 | 0.00 | 0.00 | 0.00 | 38 | 1017.1 |
| 20260503172838 | 11 | 359 | 12.9 | 14.5 | 0.00 | 0.00 | 0.00 | 39 | 1017.2 |
| 20260503172336 | 11 | 42 | 8.0 | 12.9 | 0.00 | 0.00 | 0.00 | 37 | 1017.4 |
| 20260503171832 | 11 | 212 | 1.6 | 3.2 | 0.00 | 0.00 | 0.00 | 44 | 1017.4 |
| 20260503171329 | 11 | 212 | 1.6 | 3.2 | 0.00 | 0.00 | 0.00 | 44 | 1017.4 |
| 20260503170826 | 11 | 170 | 3.2 | 3.2 | 0.00 | 0.00 | 0.00 | 39 | 1017.5 |
| 20260503170323 | 11 | 214 | 6.4 | 11.3 | 0.00 | 0.00 | 0.00 | 42 | 1017.5 |
| 20260503150715 | 9 | 214 | 0.0 | 1.6 | 0.00 | 0.00 | 0.00 | 51 | 1018.5 |
| 20260503150211 | 8 | 298 | 9.7 | 14.5 | 0.00 | 0.00 | 0.00 | 48 | 1018.6 |
| 20260503140136 | 7 | 305 | 4.8 | 4.8 | 0.00 | 0.00 | 0.00 | 57 | 1018.6 |
| 20260503131105 | 6 | 189 | 3.2 | 3.2 | 0.00 | 0.00 | 0.00 | 61 | 1018.3 |
| 20260503130603 | 6 | 309 | 1.6 | 1.6 | 0.00 | 0.00 | 0.00 | 59 | 1018.4 |
| 20260503110453 | 2 | 59 | 0.0 | 0.0 | 0.00 | 0.00 | 0.00 | 71 | 1017.4 |
| 20260503090338 | 2 | 330 | 3.2 | 3.2 | 0.00 | 0.00 | 0.00 | 70 | 1016.0 |
| 20260503081306 | 2 | 27 | 8.0 | 12.9 | 0.00 | 0.00 | 0.00 | 70 | 1016.0 |
| 20260503080802 | 2 | 323 | 6.4 | 6.4 | 0.00 | 0.00 | 0.00 | 70 | 1015.9 |
| 20260503080259 | 2 | 19 | 3.2 | 9.7 | 0.00 | 0.00 | 0.00 | 70 | 1015.6 |
| 20260503072736 | 2 | 318 | 3.2 | 3.2 | 0.00 | 0.00 | 0.00 | 70 | 1015.4 |
| 20260503072233 | 2 | 318 | 3.2 | 6.4 | 0.00 | 0.00 | 0.00 | 70 | 1015.7 |
| 20260503071729 | 2 | 144 | 1.6 | 1.6 | 0.00 | 0.00 | 0.00 | 72 | 1015.5 |
| 20260503071226 | 2 | 317 | 3.2 | 3.2 | 0.00 | 0.00 | 0.00 | 73 | 1015.8 |
| 20260503070722 | 2 | 331 | 1.6 | 4.8 | 0.00 | 0.00 | 0.00 | 73 | 1015.7 |
| 20260503070221 | 2 | 316 | 0.0 | 1.6 | 0.00 | 0.00 | 0.00 | 73 | 1015.7 |
| 20260503060145 | 3 | 337 | 9.7 | 12.9 | 0.00 | 0.00 | 0.00 | 68 | 1015.4 |
| 20260503054632 | 3 | 0 | 3.2 | 3.2 | 0.00 | 0.00 | 0.00 | 69 | 1015.3 |
| 20260503054129 | 3 | 324 | 6.4 | 6.4 | 0.00 | 0.00 | 0.00 | 69 | 1015.3 |
| 20260503053627 | 3 | 340 | 4.8 | 4.8 | 0.00 | 0.00 | 0.00 | 69 | 1015.6 |
| 20260503053125 | 3 | 340 | 4.8 | 6.4 | 0.00 | 0.00 | 0.00 | 69 | 1015.5 |
| 20260503052621 | -17 | 0.0 | 0.0 | 0.00 | 0.00 | 0.00 | 1015.3 | ||
| 20260503052118 | 3 | 328 | 6.4 | 6.4 | 0.00 | 0.00 | 0.00 | 68 | 1015.4 |
| 20260503051613 | 3 | 328 | 6.4 | 6.4 | 0.00 | 0.00 | 0.00 | 68 | 1015.3 |
| 20260503051111 | 3 | 232 | 3.2 | 4.8 | 0.00 | 0.00 | 0.00 | 68 | 1015.3 |
| 20260503050607 | 3 | 281 | 0.0 | 0.0 | 0.00 | 0.00 | 0.00 | 68 | 1015.5 |
| 20260503050104 | 3 | 328 | 3.2 | 3.2 | 0.00 | 0.00 | 0.00 | 68 | 1015.7 |
| 20260503045601 | 4 | 31 | 8.0 | 9.7 | 0.00 | 0.00 | 0.00 | 67 | 1015.5 |
| 20260503045059 | -17 | 0.0 | 0.0 | 0.00 | 0.00 | 0.00 | 1015.5 | ||
| 20260503044555 | -17 | 0.0 | 0.0 | 0.00 | 0.00 | 0.00 | 1015.6 | ||
| 20260503044053 | -17 | 0.0 | 0.0 | 0.00 | 0.00 | 0.00 | 1015.6 | ||
| 20260503043549 | 4 | 43 | 12.9 | 17.7 | 0.00 | 0.00 | 0.00 | 66 | 1015.8 |
| 20260503043046 | 4 | 43 | 12.9 | 17.7 | 0.00 | 0.00 | 0.00 | 66 | 1015.6 |
| 20260503042542 | 4 | 5 | 6.4 | 11.3 | 0.00 | 0.00 | 0.00 | 67 | 1015.7 |
| 20260503042038 | 4 | 5 | 6.4 | 11.3 | 0.00 | 0.00 | 0.00 | 67 | 1015.6 |
| 20260503041535 | 4 | 46 | 0.0 | 1.6 | 0.00 | 0.00 | 0.00 | 68 | 1015.5 |
| 20260503041033 | -17 | 0.0 | 0.0 | 0.00 | 0.00 | 0.00 | 1015.5 | ||
| 20260503040530 | 5 | 266 | 4.8 | 4.8 | 0.00 | 0.00 | 0.00 | 68 | 1015.5 |
| 20260503040028 | 5 | 266 | 4.8 | 4.8 | 0.00 | 0.00 | 0.00 | 68 | 1015.6 |
| 20260503035524 | 5 | 310 | 8.0 | 11.3 | 0.00 | 0.00 | 0.00 | 67 | 1015.6 |
| 20260503035022 | 5 | 10 | 4.8 | 4.8 | 0.00 | 0.00 | 0.00 | 67 | 1015.6 |
| 20260503034519 | 5 | 297 | 9.7 | 12.9 | 0.00 | 0.00 | 0.00 | 66 | 1015.6 |
| 20260503034016 | 5 | 297 | 9.7 | 12.9 | 0.00 | 0.00 | 0.00 | 66 | 1015.5 |
| 20260503033513 | 5 | 19 | 6.4 | 9.7 | 0.00 | 0.00 | 0.00 | 65 | 1015.4 |
| 20260503033011 | 5 | 19 | 6.4 | 9.7 | 0.00 | 0.00 | 0.00 | 65 | 1015.5 |
| 20260503032509 | 5 | 292 | 8.0 | 12.9 | 0.00 | 0.00 | 0.00 | 66 | 1015.6 |
| 20260503032007 | 5 | 315 | 12.9 | 16.1 | 0.00 | 0.00 | 0.00 | 66 | 1015.5 |
| 20260503031505 | 5 | 341 | 11.3 | 16.1 | 0.00 | 0.00 | 0.00 | 67 | 1015.7 |
| 20260503031001 | 5 | 338 | 4.8 | 6.4 | 0.00 | 0.00 | 0.00 | 66 | 1015.4 |
| 20260503030457 | 5 | 300 | 6.4 | 6.4 | 0.00 | 0.00 | 0.00 | 65 | 1015.5 |
| 20260503025954 | 5 | 339 | 4.8 | 4.8 | 0.00 | 0.00 | 0.00 | 66 | 1015.5 |
| 20260503025451 | 5 | 340 | 6.4 | 9.7 | 0.00 | 0.00 | 0.00 | 66 | 1015.8 |
| 20260503024949 | 5 | 301 | 3.2 | 3.2 | 0.00 | 0.00 | 0.00 | 64 | 1015.4 |
| 20260503024445 | 5 | 307 | 1.6 | 3.2 | 0.00 | 0.00 | 0.00 | 65 | 1015.6 |
| 20260503023942 | 5 | 1 | 6.4 | 9.7 | 0.00 | 0.00 | 0.00 | 63 | 1015.6 |
| 20260503023439 | -17 | 0.0 | 0.0 | 0.00 | 0.00 | 0.00 | 1015.4 | ||
| 20260503022936 | 6 | 48 | 3.2 | 4.8 | 0.00 | 0.00 | 0.00 | 62 | 1015.4 |
| 20260503022431 | 6 | 48 | 3.2 | 4.8 | 0.00 | 0.00 | 0.00 | 62 | 1015.5 |
| 20260503021927 | 6 | 337 | 6.4 | 6.4 | 0.00 | 0.00 | 0.00 | 61 | 1015.5 |
| 20260503021423 | -17 | 0.0 | 0.0 | 0.00 | 0.00 | 0.00 | 1015.5 | ||
| 20260503020921 | -17 | 0.0 | 0.0 | 0.00 | 0.00 | 0.00 | 1015.2 | ||
| 20260503020419 | -17 | 0.0 | 0.0 | 0.00 | 0.00 | 0.00 | 1015.3 | ||
| 20260503015915 | -17 | 0.0 | 0.0 | 0.00 | 0.00 | 0.00 | 1015.3 | ||
| 20260503015412 | -17 | 0.0 | 0.0 | 0.00 | 0.00 | 0.00 | 1015.4 | ||
| 20260503014908 | 6 | 354 | 3.2 | 4.8 | 0.00 | 0.00 | 0.00 | 59 | 1015.3 |
| 20260503014405 | 6 | 354 | 3.2 | 4.8 | 0.00 | 0.00 | 0.00 | 59 | 1015.2 |
| 20260503013903 | 6 | 223 | 0.0 | 0.0 | 0.00 | 0.00 | 0.00 | 59 | 1015.1 |
| 20260503013400 | 6 | 297 | 0.0 | 3.2 | 0.00 | 0.00 | 0.00 | 57 | 1015.2 |
| 20260503012857 | 6 | 219 | 3.2 | 3.2 | 0.00 | 0.00 | 0.00 | 57 | 1015.1 |
| 20260503012355 | 7 | 192 | 1.6 | 1.6 | 0.00 | 0.00 | 0.00 | 55 | 1015.1 |
| 20260503011851 | 7 | 192 | 1.6 | 1.6 | 0.00 | 0.00 | 0.00 | 55 | 1014.9 |
| 20260503011348 | 7 | 192 | 6.4 | 6.4 | 0.00 | 0.00 | 0.00 | 54 | 1014.9 |
| 20260503010844 | 7 | 235 | 0.0 | 1.6 | 0.00 | 0.00 | 0.00 | 53 | 1014.9 |
| 20260503010342 | 7 | 316 | 11.3 | 14.5 | 0.00 | 0.00 | 0.00 | 52 | 1014.6 |
| 20260503005838 | 7 | 318 | 9.7 | 12.9 | 0.00 | 0.00 | 0.00 | 52 | 1014.4 |
| 20260503005336 | 7 | 315 | 8.0 | 11.3 | 0.00 | 0.00 | 0.00 | 51 | 1014.5 |
| 20260503004827 | 7 | 315 | 8.0 | 11.3 | 0.00 | 0.00 | 0.00 | 51 | 1014.3 |
| 20260503004325 | 7 | 38 | 0.0 | 1.6 | 0.00 | 0.00 | 0.00 | 52 | 1014.4 |
| 20260503003822 | 7 | 319 | 3.2 | 4.8 | 0.00 | 0.00 | 0.00 | 50 | 1014.4 |
| 20260503003319 | 7 | 29 | 4.8 | 6.4 | 0.00 | 0.00 | 0.00 | 51 | 1014.1 |
| 20260503002816 | 7 | 223 | 3.2 | 3.2 | 0.00 | 0.00 | 0.00 | 50 | 1014.1 |
| 20260503002313 | 7 | 95 | 1.6 | 3.2 | 0.00 | 0.00 | 0.00 | 48 | 1014.0 |
| 20260503001809 | 7 | 95 | 1.6 | 3.2 | 0.00 | 0.00 | 0.00 | 48 | 1013.8 |
| 20260503001305 | 8 | 15 | 9.7 | 12.9 | 0.00 | 0.00 | 0.00 | 47 | 1014.0 |
| 20260503000803 | 8 | 315 | 12.9 | 16.1 | 0.00 | 0.00 | 0.00 | 48 | 1013.7 |
| 20260503000300 | 7 | 343 | 11.3 | 16.1 | 0.00 | 0.00 | 0.00 | 48 | 1013.8 |
| 20260502235757 | 8 | 49 | 8.0 | 11.3 | 0.00 | 0.00 | 0.00 | 47 | 1013.7 |
| 20260502235255 | 8 | 346 | 9.7 | 17.7 | 0.00 | 0.00 | 0.00 | 46 | 1013.5 |
| 20260502234750 | 8 | 348 | 6.4 | 6.4 | 0.00 | 0.00 | 0.00 | 45 | 1013.4 |
| 20260502234242 | 8 | 312 | 8.0 | 12.9 | 0.00 | 0.00 | 0.00 | 44 | 1013.6 |
| 20260502233738 | 8 | 345 | 3.2 | 3.2 | 0.00 | 0.00 | 0.00 | 47 | 1013.2 |
| 20260502233235 | 8 | 342 | 11.3 | 14.5 | 0.00 | 0.00 | 0.00 | 45 | 1013.4 |
| 20260502232730 | 8 | 307 | 3.2 | 3.2 | 0.00 | 0.00 | 0.00 | 46 | 1013.2 |
| 20260502232228 | 8 | 321 | 9.7 | 12.9 | 0.00 | 0.00 | 0.00 | 43 | 1013.2 |
| 20260502231724 | 8 | 321 | 9.7 | 12.9 | 0.00 | 0.00 | 0.00 | 43 | 1013.4 |
| 20260502231222 | 8 | 345 | 4.8 | 9.7 | 0.00 | 0.00 | 0.00 | 45 | 1013.4 |
| 20260502230721 | 8 | 192 | 3.2 | 6.4 | 0.00 | 0.00 | 0.00 | 45 | 1013.2 |
| 20260502230219 | 8 | 336 | 8.0 | 9.7 | 0.00 | 0.00 | 0.00 | 45 | 1013.3 |
| 20260502225714 | 8 | 289 | 6.4 | 6.4 | 0.00 | 0.00 | 0.00 | 45 | 1013.2 |
| 20260502225211 | 8 | 310 | 9.7 | 12.9 | 0.00 | 0.00 | 0.00 | 43 | 1013.3 |
| 20260502224707 | 9 | 338 | 9.7 | 11.3 | 0.00 | 0.00 | 0.00 | 45 | 1013.2 |
| 20260502224205 | 8 | 336 | 9.7 | 11.3 | 0.00 | 0.00 | 0.00 | 44 | 1013.3 |
| 20260502223702 | -17 | 0.0 | 0.0 | 0.00 | 0.00 | 0.00 | 1013.1 | ||
| 20260502223200 | -17 | 0.0 | 0.0 | 0.00 | 0.00 | 0.00 | 1013.2 | ||
| 20260502222658 | -17 | 0.0 | 0.0 | 0.00 | 0.00 | 0.00 | 1013.4 | ||
| 20260502222154 | 9 | 285 | 3.2 | 3.2 | 0.00 | 0.00 | 0.00 | 46 | 1013.2 |
| 20260502221649 | 9 | 285 | 3.2 | 3.2 | 0.00 | 0.00 | 0.00 | 46 | 1013.1 |
| 20260502221147 | 10 | 281 | 3.2 | 4.8 | 0.00 | 0.00 | 0.00 | 44 | 1013.1 |
| 20260502220643 | 10 | 355 | 1.6 | 1.6 | 0.00 | 0.00 | 0.00 | 46 | 1013.0 |
| 20260502220139 | 9 | 158 | 1.6 | 3.2 | 0.00 | 0.00 | 0.00 | 49 | 1013.0 |
| 20260502215637 | 9 | 297 | 9.7 | 12.9 | 0.00 | 0.00 | 0.00 | 45 | 1013.0 |
| 20260502215133 | -17 | 0.0 | 0.0 | 0.00 | 0.00 | 0.00 | 1012.9 | ||
| 20260502214631 | 10 | 348 | 6.4 | 9.7 | 0.00 | 0.00 | 0.00 | 44 | 1013.0 |
| 20260502214127 | 10 | 333 | 12.9 | 14.5 | 0.00 | 0.00 | 0.00 | 46 | 1013.2 |
| 20260502213625 | 10 | 241 | 1.6 | 1.6 | 0.00 | 0.00 | 0.00 | 44 | 1013.1 |
| 20260502213122 | 10 | 326 | 3.2 | 4.8 | 0.00 | 0.00 | 0.00 | 48 | 1013.1 |
| 20260502212621 | 10 | 326 | 3.2 | 4.8 | 0.00 | 0.00 | 0.00 | 48 | 1013.1 |
| 20260502212114 | 10 | 316 | 8.0 | 11.3 | 0.00 | 0.00 | 0.00 | 43 | 1013.2 |
| 20260502211609 | 10 | 318 | 6.4 | 9.7 | 0.00 | 0.00 | 0.00 | 45 | 1013.1 |
| 20260502211106 | 10 | 349 | 12.9 | 17.7 | 0.00 | 0.00 | 0.00 | 42 | 1013.2 |
| 20260502210603 | 10 | 307 | 14.5 | 16.1 | 0.00 | 0.00 | 0.00 | 45 | 1013.0 |
| 20260502210059 | 11 | 323 | 11.3 | 14.5 | 0.00 | 0.00 | 0.00 | 42 | 1012.9 |
| 20260502205556 | 10 | 310 | 9.7 | 11.3 | 0.00 | 0.00 | 0.00 | 49 | 1013.1 |
| 20260502205054 | 11 | 321 | 3.2 | 6.4 | 0.00 | 0.00 | 0.00 | 44 | 1013.0 |
| 20260502204550 | 10 | 136 | 1.6 | 1.6 | 0.00 | 0.00 | 0.00 | 46 | 1012.9 |
| 20260502204048 | 10 | 280 | 1.6 | 1.6 | 0.00 | 0.00 | 0.00 | 50 | 1013.1 |
| 20260502203544 | 10 | 306 | 8.0 | 14.5 | 0.00 | 0.00 | 0.00 | 47 | 1013.3 |
| 20260502203042 | 10 | 320 | 12.9 | 14.5 | 0.00 | 0.00 | 0.00 | 44 | 1013.1 |
| 20260502202538 | 10 | 297 | 6.4 | 9.7 | 0.00 | 0.00 | 0.00 | 46 | 1013.3 |
| 20260502202036 | 10 | 242 | 1.6 | 4.8 | 0.00 | 0.00 | 0.00 | 46 | 1013.2 |
| 20260502201531 | 10 | 282 | 12.9 | 20.9 | 0.00 | 0.00 | 0.00 | 46 | 1013.1 |
| 20260502201029 | 10 | 235 | 3.2 | 4.8 | 0.00 | 0.00 | 0.00 | 44 | 1013.1 |
| 20260502200524 | 10 | 169 | 6.4 | 14.5 | 0.00 | 0.00 | 0.00 | 45 | 1013.2 |
| 20260502200022 | 10 | 347 | 14.5 | 25.7 | 0.00 | 0.00 | 0.00 | 46 | 1013.2 |
| 20260502195520 | 10 | 284 | 6.4 | 16.1 | 0.00 | 0.00 | 0.00 | 45 | 1013.2 |
| 20260502195016 | 10 | 217 | 3.2 | 3.2 | 0.00 | 0.00 | 0.00 | 53 | 1013.1 |
| 20260502194513 | 10 | 280 | 3.2 | 4.8 | 0.00 | 0.00 | 0.00 | 47 | 1013.3 |
| 20260502194009 | 10 | 330 | 6.4 | 9.7 | 0.00 | 0.00 | 0.00 | 43 | 1013.4 |
| 20260502193506 | 10 | 303 | 3.2 | 3.2 | 0.00 | 0.00 | 0.00 | 44 | 1013.5 |
| 20260502193001 | 10 | 320 | 11.3 | 17.7 | 0.00 | 0.00 | 0.00 | 47 | 1013.5 |
| 20260502192458 | 10 | 303 | 12.9 | 16.1 | 0.00 | 0.00 | 0.00 | 49 | 1013.6 |
| 20260502191955 | 10 | 308 | 9.7 | 12.9 | 0.00 | 0.00 | 0.00 | 49 | 1013.4 |
| 20260502191452 | 10 | 308 | 9.7 | 12.9 | 0.00 | 0.00 | 0.00 | 49 | 1013.7 |
| 20260502190950 | 10 | 319 | 11.3 | 17.7 | 0.00 | 0.00 | 0.00 | 49 | 1013.7 |